CAPE
0 0 0 0 0 0 0 0 0 0 2 0 0 0 0 0 0 0 0 1 3 4 5 3 3 2 5
0 0 0 0 0 0 0 0 0 0 0 0 0 0 0 0 0 0 1 0 0 0 0 4 6 6 2
0 0 0 0 0 0 0 0 0 0 0 0 0 0 0 0 0 1 0 0 0 0 0 0 1 3 5
0 0 0 0 0 0 0 0 0 0 0 0 0 0 0 0 0 0 0 0 3 2 3 2 2 3 5
1 0 0 0 0 0 0 0 0 0 0 0 0 0 0 0 0 0 0 0 2 0 0 1 1 1 3
1 0 0 0 0 0 2 3 1 0 0 0 0 0 0 0 0 0 1 1 1 0 0 0 0 0 0
1 1 1 1 2 1 4 7 4 3 0 0 0 0 0 0 0 0 1 0 0 0 0 0 0 0 0
1 2 1 1 11 14 4 3 1 3 3 1 0 0 0 0 0 0 0 0 0 0 0 0 0 0 0
0 0 4 13 14 5 6 11 7 2 2 1 0 0 0 0 0 0 0 0 0 0 0 0 0 0 0
0 1 3 3 4 4 3 5 5 3 0 1 2 1 0 0 0 0 0 0 0 0 0 0 0 0 0
1 0 0 0 0 0 2 4 4 4 0 4 4 3 4 4 0 0 0 0 0 0 0 0 0 3 0
0 0 0 0 2 1 0 6 7 4 1 7 3 3 3 2 2 0 0 0 0 0 0 0 1 0 0
0 0 0 1 0 3 3 4 3 2 1 1 4 3 5 3 1 0 0 0 0 0 1 0 0 0 0
0 0 0 0 0 1 0 1 0 1 2 2 2 2 1 1 0 1 0 2 0 0 0 1 0 2 2
0 0 0 0 0 1 0 0 1 1 0 1 2 1 2 0 0 1 0 0 0 1 2 0 0 2 1
0 0 0 0 0 0 0 0 0 0 0 0 0 0 0 1 1 0 0 0 0 2 1 1 2 0 0
0 0 0 1 0 0 0 0 0 0 0 0 0 0 0 1 0 0 0 0 0 2 2 0 0 0 0
CIN
-0 -0 -0 -0 -0 -0 -0 -0 -0 -0 -0 -0 -0 -0 -0 -0 -0 -0 -0 -0 -0 -0 -0 -0 -0 -0 -6
-0 -0 -0 -0 -0 -0 -0 -0 -0 -0 -0 -0 -0 -0 -0 -0 -0 -0 -0 -0 -0 -0 -0 -0 -0 -0 -0
-0 -0 -0 -0 -0 -0 -0 -0 -0 -0 -0 -0 -0 -0 -0 -0 -0 -0 -0 -0 -0 -0 -0 -0 -0 -0 -0
-0 -0 -0 -0 -0 -0 -0 -0 -0 -0 -0 -0 -0 -0 -0 -0 -0 -0 -0 -0 -0 -0 -0 -0 -0 -0 -0
-0 -0 -0 -0 -0 -0 -0 -0 -0 -0 -0 -0 -0 -0 -0 -0 -0 -0 -0 -0 -0 -0 -0 -0 -0 -0 -0
-0 -0 -0 -0 -0 -1 -1 -0 -0 -0 -0 -0 -0 -0 -0 -0 -0 -0 -0 -0 -0 -0 -0 -0 -0 -0 -0
-1 -1 -1 -1 -1 -0 -0 -0 -0 -1 -0 -0 -0 -0 -0 -0 -0 -0 -0 -0 -0 -0 -0 -0 -0 -0 -0
-1 -1 -1 -0 -0 -0 -0 -5 -2 -1 -1 -0 -0 -0 -0 -0 -0 -0 -0 -0 -0 -0 -0 -0 -0 -0 -0
-1 -0 -0 -0 -0 -0 -0 -0 -0 -0 -1 -1 -0 -0 -0 -0 -0 -0 -0 -0 -0 -0 -0 -0 -0 -0 -0
-0 -0 -1 -1 -0 -1 -1 -0 -0 -0 -1 -0 -1 -1 -0 -0 -0 -0 -0 -0 -0 -0 -0 -0 -0 -0 -0
-1 -0 -0 -0 -0 -1 -1 -1 -0 -0 -1 -1 -1 -0 -0 -0 -0 -0 -0 -0 -0 -0 -0 -0 -0 -0 -0
-0 -0 -0 -0 -0 -0 -1 -0 -0 -0 -0 -0 -0 -0 -0 -0 -0 -0 -0 -0 -0 -0 -0 -0 -0 -0 -0
-0 -0 -0 -0 -0 -0 -0 -0 -1 -0 -0 -1 -0 -0 -0 -0 -0 -0 -0 -0 -0 -0 -0 -0 -0 -0 -0
-0 -0 -0 -0 -1 -1 -1 -1 -1 -1 -0 -0 -0 -0 -0 -0 -0 -0 -0 -0 -0 -0 -0 -0 -0 -0 -0
-1 -1 -1 -0 -1 -0 -0 -0 -0 -0 -0 -1 -1 -1 -1 -1 -0 -0 -0 -0 -0 -0 -0 -0 -0 -0 -0
-1 -0 -0 -0 -0 -1 -0 -0 -0 -0 -0 -1 -1 -0 -0 -0 -1 -0 -0 -0 -0 -0 -1 -0 -0 -0 -0
-0 -0 -0 -0 -0 -0 -0 -0 -0 -0 -0 -0 -0 -0 -0 -0 -0 -0 -0 -0 -0 -0 -0 -0 -0 -0 -0
Wind_Speed
28 30 30 30 30 30 29 30 32 31 30 30 33 33 31 31 30 32 33 33 34 33 34 35 36 37 38
29 30 30 31 32 31 30 30 32 32 32 33 35 35 33 33 33 33 34 35 36 36 35 37 37 37 38
25 27 29 30 32 30 30 31 30 30 30 32 34 33 33 34 33 33 37 38 38 39 38 37 39 39 38
26 25 25 29 30 33 33 32 33 29 30 32 33 34 33 33 33 35 38 37 36 35 37 39 38 39 39
30 30 29 30 34 34 36 36 35 30 34 35 35 34 33 34 34 36 37 35 36 37 38 40 41 42 41
28 29 29 29 32 35 37 37 38 30 38 39 35 36 35 35 37 38 36 34 37 38 39 40 42 44 44
26 27 30 31 34 36 37 38 38 37 39 40 37 38 36 37 39 38 35 35 38 39 41 40 42 44 46
24 26 28 31 31 34 36 37 37 36 35 41 39 40 38 39 38 36 34 38 40 41 40 41 42 43 45
27 28 29 30 31 34 35 37 40 39 37 39 38 42 41 39 36 31 38 40 41 41 41 42 42 43 44
28 28 29 29 29 30 33 35 37 38 30 31 36 38 38 35 32 40 39 41 41 41 42 42 40 40 40
28 28 29 30 29 29 29 31 34 35 34 36 35 37 37 43 41 42 42 40 41 42 40 40 41 38 42
27 28 28 28 28 28 29 30 30 33 34 35 37 39 42 45 46 40 41 42 42 41 42 39 40 42 42
24 23 21 20 20 21 23 25 27 29 31 33 37 39 40 44 46 44 43 40 42 40 40 43 43 42 43
18 17 17 18 18 18 20 21 23 26 26 29 32 36 40 40 41 43 41 40 39 41 43 44 43 42 42
18 18 19 19 20 21 21 23 25 28 29 27 26 29 33 37 41 42 43 42 40 39 40 44 43 42 42
18 18 18 19 20 21 22 23 26 27 28 27 28 31 33 35 35 40 39 40 39 39 39 43 45 42 41
16 16 17 18 19 20 20 21 22 22 22 22 22 27 35 39 33 30 37 38 39 39 39 42 45 44 42
Wind_Direction
316 314 309 310 308 311 310 302 294 295 294 292 288 288 289 291 292 289 287 288 284 288 285 283 281 278 275
320 319 314 313 311 308 305 306 298 295 294 293 291 293 294 293 291 290 288 288 287 287 287 284 282 279 277
334 328 320 317 312 311 308 304 304 299 298 302 298 296 293 289 294 290 288 287 287 285 283 283 281 280 278
330 332 330 320 315 309 307 308 304 304 304 305 304 299 294 294 295 293 289 289 288 288 283 280 280 279 278
322 325 325 324 315 310 306 305 304 302 302 302 302 299 296 295 295 294 291 289 288 287 286 282 279 278 279
328 324 324 324 318 310 305 303 299 304 301 298 300 297 296 294 294 293 291 290 289 287 287 284 281 278 278
327 325 322 321 315 310 305 302 301 303 300 295 300 294 297 296 295 293 289 290 292 289 287 285 284 281 277
330 327 322 319 317 314 309 305 303 303 305 294 297 294 297 297 295 293 291 292 292 291 288 286 285 282 280
328 324 321 319 317 314 311 307 302 302 303 299 298 294 293 294 294 292 292 293 291 290 288 287 285 283 281
329 325 323 321 320 315 311 307 305 304 309 303 301 303 293 292 292 295 293 293 290 289 287 286 285 284 282
329 327 325 322 320 318 315 310 306 302 303 302 301 299 296 292 291 292 292 290 290 289 287 286 285 282 282
332 331 329 327 324 322 318 314 310 306 305 301 298 296 294 292 291 294 291 289 289 287 286 284 282 281 280
341 342 344 344 340 335 330 324 319 314 309 305 299 296 293 290 289 292 292 292 289 283 284 283 281 280 279
347 347 346 344 342 341 337 334 330 325 322 315 308 301 295 292 290 289 291 290 291 288 283 281 280 278 276
348 346 344 342 339 338 334 330 326 324 322 323 319 309 302 295 290 289 289 289 290 289 286 280 276 276 274
348 347 344 342 340 337 333 328 325 324 323 325 322 314 306 300 294 291 291 289 290 289 287 281 276 274 274
349 347 345 343 341 339 337 332 328 328 330 331 328 318 305 298 304 301 294 293 291 288 287 282 276 274 273